Weather History for Douglas, WY

Change the Weather History Date:

Saturday, September 21, 2013

  Actual Average Record
Temperature  
Mean Temperature 62 °F 56 °F  
Max Temperature 87 °F 72 °F 87 °F (2013)
Min Temperature 37 °F 39 °F 25 °F (2011)
Degree Days  
Heating Degree Days 3 10  
Month to date heating degree days 50 122  
Since 1 July heating degree days 50 163  
Cooling Degree Days 0 0  
Month to date cooling degree days 86 27  
Year to date cooling degree days 737 485  
Growing Degree Days 12 (Base 50)    
Moisture  
Dew Point 30 °F    
Average Humidity 46    
Maximum Humidity 82    
Minimum Humidity 10    
Precipitation  
Precipitation 0.00 in 0.05 in 0.31 in (2004)
Month to date precipitation 0.14 0.86  
Year to date precipitation 6.36 10.91  
Sea Level Pressure  
Sea Level Pressure 29.76 in    
Wind  
Wind Speed 7 mph (SW)    
Max Wind Speed 26 mph    
Max Gust Speed 32 mph    
Visibility 10 miles    
Events      
T = Trace of Precipitation, MM = Missing Value Source: NWS Daily Summary

Daily Weather History Graph

Daily Weather History Graph

Search for Another Location

Airport:

Trip Planner

Search our weather history database for the weather conditions in past years. The results will help you decide how hot, cold, wet, or windy it might be!

Date:

Astronomy

Sep. 21, 2013 Rise Set
Actual Time 6:48 AM MDT 7:00 PM MDT
Civil Twilight 6:19 AM MDT 7:28 PM MDT
Nautical Twilight 5:46 AM MDT 8:01 PM MDT
Astronomical Twilight 5:12 AM MDT 8:35 PM MDT
Moon 8:07 PM MDT (9/21) 9:13 AM MDT (9/21)
Length of Visible Light 13h 08m
Length of Day
12h 12m
Waning Gibbous, 94% of the Moon is Illuminated
Sep 21
Waning Gibbous
Sep 26
Last Quarter
Oct 4
New
Oct 11
First Quarter
Oct 18
Full

Hourly Weather History & Observations

Time (MDT) Temp. Windchill Dew Point Humidity Pressure Visibility Wind Dir Wind Speed Gust Speed Precip Events Conditions
12:53 AM 46.9 °F - 32.0 °F 56% 29.88 in 10.0 mi SSE 4.6 mph - N/A   Clear
1:53 AM 45.0 °F 41.8 °F 32.0 °F 60% 29.87 in 10.0 mi Variable 5.8 mph - N/A   Clear
2:53 AM 41.0 °F 36.4 °F 30.9 °F 67% 29.86 in 10.0 mi South 6.9 mph - N/A   Clear
3:53 AM 42.1 °F - 32.0 °F 67% 29.85 in 10.0 mi Calm Calm - N/A   Clear
4:53 AM 41.0 °F - 32.0 °F 70% 29.85 in 10.0 mi Calm Calm - N/A   Clear
5:53 AM 39.9 °F - 32.0 °F 73% 29.85 in 10.0 mi Calm Calm - N/A   Clear
6:53 AM 37.9 °F - 32.0 °F 79% 29.87 in 10.0 mi Calm Calm - N/A   Clear
7:53 AM 46.9 °F - 36.0 °F 66% 29.88 in 10.0 mi Calm Calm - N/A   Clear
8:53 AM 54.0 °F - 36.0 °F 51% 29.86 in 10.0 mi South 3.5 mph - N/A   Clear
9:53 AM 64.9 °F - 33.1 °F 31% 29.83 in 10.0 mi Calm Calm - N/A   Clear
10:53 AM 75.0 °F - 35.1 °F 23% 29.79 in 10.0 mi WNW 3.5 mph - N/A   Clear
11:53 AM 82.0 °F - 32.0 °F 16% 29.74 in 10.0 mi NW 12.7 mph - N/A   Clear
12:53 PM 84.9 °F - 28.9 °F 13% 29.73 in 10.0 mi WNW 18.4 mph 29.9 mph N/A   Clear
1:53 PM 84.9 °F - 28.9 °F 13% 29.72 in 10.0 mi West 21.9 mph 28.8 mph N/A   Clear
2:53 PM 84.9 °F - 30.9 °F 14% 29.70 in 10.0 mi WNW 6.9 mph 20.7 mph N/A   Clear
3:53 PM 87.1 °F - 30.0 °F 13% 29.65 in 10.0 mi WSW 16.1 mph 21.9 mph N/A   Clear
4:53 PM 84.9 °F - 26.1 °F 12% 29.66 in 10.0 mi SW 16.1 mph 25.3 mph N/A   Clear
5:53 PM 82.9 °F - 21.0 °F 10% 29.66 in 10.0 mi WSW 16.1 mph - N/A   Clear
6:53 PM 75.0 °F - 19.9 °F 13% 29.68 in 10.0 mi WSW 8.1 mph - N/A   Clear
7:53 PM 66.9 °F - 23.0 °F 19% 29.69 in 10.0 mi West 6.9 mph - N/A   Clear
8:53 PM 62.1 °F - 25.0 °F 24% 29.69 in 10.0 mi ESE 5.8 mph - N/A   Clear
9:53 PM 60.1 °F - 26.1 °F 27% 29.66 in 10.0 mi SSE 5.8 mph - N/A   Clear
10:53 PM 59.0 °F - 28.9 °F 32% 29.63 in 10.0 mi SE 6.9 mph - N/A   Clear
11:53 PM 57.0 °F - 28.9 °F 34% 29.61 in 10.0 mi SSE 5.8 mph - N/A   Clear